[[{"header":{"parameterUnit":"m.s-1","parameterCategory":1,"la1":30.2991,"la2":30.254,"lo1":-89.0895,"lo2":-89.0444,"dx":0.0017,"dy":0.0017,"nx":28,"ny":28,"refTime":"2022-12-12T03:00:00:Z","depth":0,"parameterNumber":2,"parameterNumberName":"U-component_of_WINDS"},"data":[0,0,0,0,0,0,0,0,0,0,0,0,0,0,0,0,0,0,0,0,0,0,0,0,0,0,0,0,0,0,0,0,0,0,0,0,0,0,0,0,0,0,0,0,0,0,0,0,0,0,0,0,0,0,0,0,0,0,-0.9383,-0.9385,0,-0.9513,-0.9514,-0.9516,-0.9627,-0.9628,-0.9629,-0.9631,-0.9759,-0.9761,-0.9763,0,0,0,0,0,0,0,0,0,0,0,0,0,-0.9228,-0.923,-0.9383,-0.9385,-0.9386,-0.9512,-0.9514,-0.9516,-0.9627,-0.9628,-0.963,-0.9631,-0.9758,-0.9761,-0.9764,0,0,0,0,0,0,0,0,0,0,0,0,0,-0.932,-0.9231,-0.9383,-0.9457,-0.9465,-0.9512,-0.9514,-0.9516,-0.9626,-0.9628,-0.963,-0.9632,-0.9757,-0.9761,-0.9764,-0.9747,0,0,-0.9774,-0.9776,0,0,0,0,0,0,0,0,-0.9315,-0.9326,-0.9444,-0.9452,-0.9461,-0.9556,-0.9507,-0.9594,-0.9626,-0.9565,-0.9631,-0.9633,-0.9689,-0.9699,-0.9719,-0.9753,-0.9759,-0.9775,-0.9777,-0.9778,-0.9779,0,0,0,0,0,0,0,-0.9308,-0.9321,-0.9434,-0.9446,-0.9456,-0.9482,-0.9498,-0.9524,-0.9615,-0.957,-0.9579,-0.9593,-0.9694,-0.9715,-0.9722,-0.976,-0.9774,-0.9777,-0.978,-0.9781,-0.9786,-0.9785,0,0,0,0,0,0,-0.9291,-0.9315,-0.943,-0.9438,-0.9391,-0.9484,-0.9501,-0.9523,-0.9615,-0.9631,-0.9591,-0.9597,-0.9708,-0.9718,-0.9727,-0.9712,-0.9778,-0.9781,-0.9783,-0.9788,-0.9786,-0.9784,0,0,0,0,0,0,-0.9287,-0.93,-0.9425,-0.9379,-0.9397,-0.9484,-0.9509,-0.9525,-0.9546,-0.9631,-0.9647,-0.9596,-0.971,-0.9723,-0.9741,-0.9718,-0.9783,-0.9786,-0.979,-0.9787,-0.9785,-0.9682,0,0,0,0,0,0,-0.9282,-0.9298,-0.9293,-0.9378,-0.9399,-0.9437,-0.9508,-0.9526,-0.9552,-0.9561,-0.9639,-0.9654,-0.9713,-0.9736,-0.9745,-0.9724,-0.9788,-0.9793,-0.9789,-0.9786,-0.9687,-0.9676,-0.9666,0,0,0,0,0,-0.9276,-0.9258,-0.9292,-0.9306,-0.9395,-0.9436,-0.9448,-0.9517,-0.9549,-0.9544,-0.9599,-0.9651,-0.972,-0.9737,-0.9748,-0.9727,-0.9794,-0.979,-0.9786,-0.9692,-0.9678,-0.9666,0,0,0,0,0,0,-0.9167,-0.9271,-0.931,-0.9319,-0.9368,-0.9455,-0.945,-0.9499,-0.9539,-0.9546,-0.9629,-0.9646,-0.9655,-0.9694,-0.9711,-0.9716,-0.9764,-0.9762,-0.9689,-0.9676,-0.9665,-0.9654,-0.9791,0,0,0,0,0,-0.9145,-0.9171,-0.926,-0.9259,-0.9282,-0.9362,-0.9382,-0.9431,-0.9485,-0.9505,-0.9562,-0.961,-0.9643,-0.9662,-0.9697,-0.9695,-0.9712,-0.9687,-0.9676,-0.9666,-0.9662,-0.9662,-0.9651,-0.977,-0.977,-0.977,0,0,-0.9097,-0.9157,-0.9168,-0.9238,-0.9282,-0.9305,-0.9378,-0.94,-0.9418,-0.9509,-0.9529,-0.9572,-0.9632,-0.964,-0.9646,-0.9672,-0.9634,-0.9661,-0.9653,-0.9654,-0.9656,-0.9645,-0.9635,-0.9767,-0.9768,-0.9768,0,0,-0.9022,-0.9071,-0.9076,-0.9118,-0.9184,-0.9238,-0.9238,-0.9318,-0.935,-0.9373,-0.9442,-0.9464,-0.9519,-0.9558,-0.9585,-0.9526,-0.9575,-0.9535,-0.9477,-0.9476,-0.9466,-0.9458,-0.9434,-0.9425,-0.9532,-0.9532,-0.9531,0,-0.8954,-0.8994,-0.9071,-0.9089,-0.9117,-0.9203,-0.9206,-0.9244,-0.9317,-0.9333,-0.9363,-0.9433,-0.948,-0.9497,-0.9482,-0.9503,-0.9505,-0.9525,-0.9462,-0.9454,-0.9448,-0.9426,-0.9417,-0.9526,-0.9527,-0.9527,-0.9528,0,-0.8906,-0.8932,-0.8927,-0.8997,-0.9025,-0.9035,-0.9113,-0.9132,-0.918,-0.9229,-0.9251,-0.931,-0.9358,-0.9366,-0.9412,-0.939,-0.9404,-0.9446,-0.9496,-0.943,-0.9411,-0.9403,-0.9518,-0.952,-0.9522,-0.9523,0,0,-0.8763,-0.8876,-0.8873,-0.8905,-0.8984,-0.9005,-0.902,-0.9068,-0.9081,-0.913,-0.9142,-0.9187,-0.9227,-0.9258,-0.9309,-0.9309,-0.9255,-0.9352,-0.9354,-0.9329,-0.9231,-0.9196,-0.9185,-0.929,-0.9289,-0.9288,-0.9225,0,-0.8698,-0.873,-0.88,-0.8808,-0.8832,-0.8915,-0.8927,-0.8976,-0.9024,-0.905,-0.9103,-0.9132,-0.9184,-0.9203,-0.9207,-0.9261,-0.9236,-0.9267,-0.9299,-0.93,-0.9278,-0.9176,-0.9139,-0.9077,-0.9219,-0.9217,-0.9217,0,-0.8627,-0.867,-0.8681,-0.8759,-0.8772,-0.8781,-0.883,-0.8856,-0.8913,-0.8948,-0.8982,-0.904,-0.9058,-0.9107,-0.9132,-0.9151,-0.9169,-0.9198,-0.9197,-0.92,-0.9251,-0.9172,-0.9059,-0.9048,-0.9206,-0.9207,-0.9208,0,-0.8517,-0.8579,-0.8593,-0.8619,-0.8711,-0.8715,-0.8753,-0.8813,-0.8837,-0.888,-0.8896,-0.8941,-0.8964,-0.8997,-0.9064,-0.9094,-0.908,-0.9135,-0.9107,-0.9105,-0.9097,-0.9096,-0.8981,-0.9115,-0.9115,-0.9115,-0.9115,0,-0.8436,-0.8438,-0.8545,-0.8553,-0.8558,-0.864,-0.8642,-0.8688,-0.8741,-0.8758,-0.8833,-0.8848,-0.8938,-0.8963,-0.9016,-0.9027,-0.9038,-0.9065,-0.9078,-0.9056,-0.9052,-0.9066,-0.907,-0.9113,-0.9113,-0.9114,-0.9114,0,-0.8312,-0.8385,-0.8405,-0.8491,-0.8513,-0.8512,-0.8585,-0.8596,-0.8649,-0.867,-0.868,-0.8762,-0.8795,-0.8867,-0.8919,-0.8955,-0.8952,-0.8979,-0.8932,-0.894,-0.8907,-0.8907,-0.8794,-0.8782,-0.8925,-0.8924,-0.8923,0,-0.8254,-0.8258,-0.8344,-0.8362,-0.8398,-0.8425,-0.8451,-0.8531,-0.8554,-0.862,-0.8622,-0.8662,-0.8697,-0.8746,-0.8809,-0.885,-0.8875,-0.8833,-0.8882,-0.8859,-0.8871,-0.8868,-0.8867,-0.882,-0.8819,-0.8817,-0.8816,0,-0.8141,-0.8176,-0.8211,-0.8257,-0.8285,-0.8325,-0.837,-0.838,-0.8471,-0.8493,-0.8528,-0.8555,-0.861,-0.8646,-0.8697,-0.8735,-0.8789,-0.8801,-0.8796,-0.8771,-0.8742,-0.8754,-0.8899,-0.8802,-0.8803,-0.8804,-0.8805,-0.8806,-0.8046,-0.8053,-0.8114,-0.815,-0.8192,-0.8231,-0.8245,-0.83,-0.8332,-0.8382,-0.8429,-0.8458,-0.8516,-0.8589,-0.8624,-0.8648,-0.8675,-0.8669,-0.8667,-0.8663,-0.8652,-0.8742,-0.8658,-0.8659,-0.8659,-0.8659,-0.866,0,-0.7934,-0.7978,-0.801,-0.807,-0.8097,-0.8149,-0.8201,-0.8219,-0.8245,-0.8295,-0.8329,-0.8369,-0.8405,-0.8473,-0.8515,-0.8521,-0.8547,-0.8529,-0.8527,-0.8534,-0.8627,-0.8625,-0.8507,-0.8507,-0.8507,-0.8507,-0.8507,-0.8507,-0.7878,-0.7891,-0.7935,-0.7969,-0.8014,-0.8045,-0.8069,-0.8106,-0.8146,-0.8187,-0.8218,-0.8263,-0.8319,-0.8366,-0.8402,-0.8421,-0.8431,-0.8404,-0.843,-0.8514,-0.8528,-0.8542,-0.8541,-0.8407,-0.8407,-0.8336,-0.8336,-0.8335]},{"header":{"parameterUnit":"m.s-1","parameterCategory":1,"la1":30.2991,"la2":30.254,"lo1":-89.0895,"lo2":-89.0444,"dx":0.0017,"dy":0.0017,"nx":28,"ny":28,"refTime":"2022-12-12T03:00:00:Z","depth":0,"parameterNumber":3,"parameterNumberName":"V-component_of_WINDS"},"data":[0,0,0,0,0,0,0,0,0,0,0,0,0,0,0,0,0,0,0,0,0,0,0,0,0,0,0,0,0,0,0,0,0,0,0,0,0,0,0,0,0,0,0,0,0,0,0,0,0,0,0,0,0,0,0,0,0,0,-0.7385,-0.7386,0,-0.7466,-0.7467,-0.7468,-0.7545,-0.7546,-0.7547,-0.7548,-0.7628,-0.7629,-0.763,0,0,0,0,0,0,0,0,0,0,0,0,0,-0.7291,-0.7292,-0.7385,-0.7386,-0.7387,-0.7466,-0.7467,-0.7468,-0.7545,-0.7546,-0.7547,-0.7548,-0.7627,-0.7629,-0.763,0,0,0,0,0,0,0,0,0,0,0,0,0,-0.7347,-0.7292,-0.7385,-0.7435,-0.744,-0.7466,-0.7467,-0.7468,-0.7545,-0.7546,-0.7548,-0.7549,-0.7627,-0.7629,-0.763,-0.7612,0,0,-0.7636,-0.7637,0,0,0,0,0,0,0,0,-0.7344,-0.7351,-0.7426,-0.7431,-0.7437,-0.7497,-0.7463,-0.7516,-0.7544,-0.7505,-0.7548,-0.755,-0.7583,-0.7588,-0.76,-0.7616,-0.7619,-0.7636,-0.7637,-0.7638,-0.7639,0,0,0,0,0,0,0,-0.734,-0.7348,-0.7417,-0.7427,-0.7434,-0.7451,-0.7461,-0.7473,-0.7534,-0.7508,-0.7514,-0.7523,-0.7586,-0.7598,-0.7603,-0.762,-0.7636,-0.7638,-0.7639,-0.764,-0.7618,-0.7617,0,0,0,0,0,0,-0.7329,-0.7344,-0.7414,-0.7419,-0.7394,-0.7452,-0.7463,-0.7476,-0.7535,-0.7545,-0.7522,-0.7526,-0.7594,-0.76,-0.7606,-0.7584,-0.7638,-0.764,-0.7641,-0.762,-0.7618,-0.7616,0,0,0,0,0,0,-0.7327,-0.7335,-0.7411,-0.7383,-0.7394,-0.7452,-0.7466,-0.7477,-0.7489,-0.7545,-0.7555,-0.7523,-0.7596,-0.7603,-0.7609,-0.7588,-0.7641,-0.7642,-0.7622,-0.7619,-0.7617,-0.7542,0,0,0,0,0,0,-0.7324,-0.7333,-0.7329,-0.7383,-0.7395,-0.7414,-0.7465,-0.7478,-0.7493,-0.75,-0.7549,-0.7558,-0.7598,-0.7605,-0.761,-0.7591,-0.7644,-0.7624,-0.7621,-0.7618,-0.7546,-0.7537,-0.7529,0,0,0,0,0,-0.732,-0.7305,-0.7328,-0.7336,-0.7391,-0.7413,-0.742,-0.7467,-0.7491,-0.7485,-0.7519,-0.7557,-0.7589,-0.7605,-0.7612,-0.7593,-0.7625,-0.7621,-0.7618,-0.755,-0.7539,-0.7529,0,0,0,0,0,0,-0.7248,-0.7313,-0.734,-0.7342,-0.7371,-0.7426,-0.7421,-0.7454,-0.7477,-0.7482,-0.7537,-0.7548,-0.7545,-0.757,-0.7587,-0.7575,-0.7612,-0.7609,-0.7559,-0.7548,-0.754,-0.7533,-0.7645,0,0,0,0,0,-0.7232,-0.7246,-0.7302,-0.7298,-0.7312,-0.7363,-0.7375,-0.7407,-0.744,-0.7452,-0.7488,-0.7516,-0.7532,-0.7542,-0.7561,-0.7551,-0.756,-0.754,-0.7531,-0.7524,-0.752,-0.7511,-0.7502,-0.7604,-0.7604,-0.7604,0,0,-0.72,-0.7237,-0.7243,-0.7284,-0.7311,-0.7321,-0.7373,-0.7384,-0.7391,-0.7454,-0.746,-0.7486,-0.7522,-0.7518,-0.7518,-0.7538,-0.7494,-0.7519,-0.7513,-0.7513,-0.7506,-0.7496,-0.7488,-0.7601,-0.7602,-0.7602,0,0,-0.7146,-0.7177,-0.7175,-0.72,-0.7239,-0.7273,-0.7272,-0.7321,-0.734,-0.7348,-0.7394,-0.7402,-0.7431,-0.7452,-0.7467,-0.7415,-0.7448,-0.7419,-0.7374,-0.7364,-0.7356,-0.7349,-0.7326,-0.7318,-0.7416,-0.7416,-0.7416,0,-0.71,-0.712,-0.717,-0.7176,-0.719,-0.7247,-0.7243,-0.7265,-0.7308,-0.7315,-0.7338,-0.7371,-0.7399,-0.7398,-0.7385,-0.7396,-0.7394,-0.7414,-0.7353,-0.7347,-0.7341,-0.732,-0.7311,-0.7412,-0.7412,-0.7413,-0.7413,0,-0.7059,-0.7071,-0.7065,-0.7103,-0.7118,-0.7119,-0.7166,-0.7175,-0.7205,-0.7235,-0.7238,-0.7274,-0.7298,-0.73,-0.7331,-0.7302,-0.7313,-0.7343,-0.7382,-0.7326,-0.7307,-0.73,-0.7406,-0.7407,-0.7409,-0.741,0,0,-0.6964,-0.7027,-0.7024,-0.7039,-0.7085,-0.7094,-0.7095,-0.7119,-0.7122,-0.7149,-0.7149,-0.7169,-0.7196,-0.7212,-0.7245,-0.7237,-0.7188,-0.7268,-0.727,-0.7248,-0.7152,-0.7126,-0.7117,-0.7211,-0.7209,-0.7208,-0.7148,0,-0.6915,-0.6922,-0.6965,-0.6958,-0.6967,-0.7019,-0.7019,-0.7045,-0.7072,-0.7082,-0.7112,-0.7123,-0.7161,-0.717,-0.7165,-0.7195,-0.7168,-0.72,-0.7207,-0.7207,-0.7194,-0.7107,-0.7082,-0.7023,-0.7141,-0.714,-0.7139,0,-0.686,-0.6881,-0.6874,-0.6915,-0.692,-0.692,-0.6942,-0.6952,-0.698,-0.7,-0.7016,-0.7052,-0.7052,-0.7089,-0.7088,-0.7109,-0.7114,-0.7128,-0.7127,-0.7128,-0.7168,-0.7101,-0.7006,-0.6995,-0.7129,-0.7129,-0.713,0,-0.6785,-0.6812,-0.6811,-0.6823,-0.6872,-0.6869,-0.6889,-0.6919,-0.6928,-0.6947,-0.6953,-0.6971,-0.698,-0.6992,-0.7031,-0.7055,-0.7023,-0.7065,-0.7036,-0.7035,-0.7026,-0.7025,-0.6926,-0.7034,-0.7034,-0.7035,-0.7035,0,-0.6724,-0.6718,-0.6777,-0.6776,-0.6768,-0.6816,-0.6806,-0.6831,-0.6856,-0.6858,-0.6904,-0.6905,-0.6957,-0.6962,-0.6992,-0.6983,-0.6988,-0.7001,-0.7009,-0.6996,-0.6993,-0.6998,-0.7001,-0.7032,-0.7033,-0.7033,-0.7034,0,-0.664,-0.6681,-0.6681,-0.6725,-0.6736,-0.6728,-0.6764,-0.6763,-0.6792,-0.6793,-0.6796,-0.684,-0.6848,-0.6888,-0.6906,-0.6925,-0.6904,-0.6922,-0.6895,-0.6899,-0.6866,-0.6867,-0.6764,-0.675,-0.687,-0.6869,-0.6868,0,-0.6598,-0.6593,-0.6635,-0.664,-0.6657,-0.6664,-0.6673,-0.6719,-0.6726,-0.6754,-0.6748,-0.676,-0.6772,-0.6781,-0.6813,-0.6825,-0.6841,-0.6804,-0.6843,-0.6828,-0.6835,-0.6833,-0.6831,-0.6794,-0.6793,-0.6792,-0.6791,0,-0.6516,-0.6535,-0.6547,-0.6563,-0.6572,-0.6588,-0.6606,-0.6607,-0.6657,-0.6661,-0.667,-0.6678,-0.6694,-0.6703,-0.672,-0.6738,-0.677,-0.6778,-0.6771,-0.6756,-0.6738,-0.6743,-0.6868,-0.678,-0.6781,-0.6782,-0.6782,-0.6783,-0.6449,-0.6445,-0.6472,-0.6482,-0.65,-0.6515,-0.6514,-0.6541,-0.6549,-0.6566,-0.6592,-0.6595,-0.6618,-0.6644,-0.6658,-0.6659,-0.6679,-0.667,-0.6667,-0.6663,-0.6654,-0.674,-0.6663,-0.6663,-0.6664,-0.6664,-0.6664,0,-0.6366,-0.6385,-0.6394,-0.6416,-0.6422,-0.6454,-0.6474,-0.6476,-0.6479,-0.6498,-0.6507,-0.6514,-0.6521,-0.6552,-0.6562,-0.6557,-0.6571,-0.6557,-0.6557,-0.6559,-0.6639,-0.6642,-0.6545,-0.6545,-0.6545,-0.6545,-0.6545,-0.6545,-0.6323,-0.6317,-0.6338,-0.6339,-0.6358,-0.6361,-0.6369,-0.6381,-0.6396,-0.6401,-0.6407,-0.6428,-0.645,-0.6462,-0.6468,-0.6477,-0.6476,-0.6456,-0.6469,-0.6543,-0.6554,-0.6565,-0.6568,-0.6457,-0.6457,-0.6389,-0.6388,-0.6388]}]]